Location: Bailleul
(50.3375°N, 2.8513°E)
Time: 11:06:36
(UTC+00:00)

Cosmos 1980 - Visible Passes

Search period start: 23 October 2021 00:00
Search period end: 02 November 2021 00:00
Orbit: 840 x 846 km, 71.0° (Epoch: 22 October)

Date Brightness Start Highest point End Pass type
(mag) Time Alt. Az. Time Alt. Az. Time Alt. Az.
23 Oct 6.2 03:39:40 10° N 03:43:08 16° NNE 03:46:35 10° ENE visible
23 Oct 4.5 05:23:00 10° NNW 05:28:35 53° NE 05:34:07 10° SE visible
24 Oct 6.2 03:25:05 10° N 03:28:27 16° NNE 03:31:50 10° ENE visible
24 Oct 4.5 05:08:23 10° NNW 05:13:56 52° NE 05:19:26 10° SE visible
25 Oct 6.2 03:10:29 10° N 03:13:46 15° NNE 03:17:04 10° ENE visible
25 Oct 4.6 04:53:46 10° NNW 04:59:17 50° NE 05:04:47 10° SE visible
26 Oct 6.3 02:55:53 10° N 02:59:05 15° NNE 03:02:18 10° ENE visible
26 Oct 4.6 04:39:09 10° NNW 04:44:38 48° NE 04:50:07 10° SE visible
27 Oct 6.3 02:41:16 10° N 02:44:24 15° NNE 02:47:32 10° ENE visible
27 Oct 4.7 04:24:31 10° NNW 04:30:00 47° NE 04:35:26 10° SE visible
28 Oct 6.3 02:27:07 11° N 02:29:43 14° NNE 02:32:46 10° ENE visible
28 Oct 4.7 04:09:54 10° NNW 04:15:20 45° NE 04:20:46 10° SE visible
28 Oct 4.3 05:54:11 10° NW 05:59:22 38° WSW 06:04:31 10° S visible
29 Oct 6.3 02:13:22 13° N 02:15:02 14° NNE 02:18:00 10° ENE visible
29 Oct 4.7 03:55:16 10° NNW 04:00:41 44° NE 04:06:05 10° ESE visible
29 Oct 4.2 05:39:31 10° NW 05:44:45 39° WSW 05:49:57 10° S visible
29 Oct 5.9 18:52:07 10° SSE 18:52:14 11° SSE 18:52:14 11° SSE visible
30 Oct 6.3 01:59:44 14° NNE 02:00:20 14° NNE 02:03:13 10° ENE visible
30 Oct 4.8 03:41:38 15° NNW 03:46:02 42° NE 03:51:24 10° ESE visible
30 Oct 4.1 05:24:52 10° NW 05:30:08 41° WSW 05:35:22 10° S visible
30 Oct 5.2 18:37:34 10° SSE 18:39:28 19° SSE 18:39:28 19° SSE visible
30 Oct 6.1 20:20:54 10° SW 20:21:24 13° SW 20:21:24 13° SW visible
31 Oct 6.4 01:46:16 13° NNE 01:46:16 13° NNE 01:48:26 10° NE visible
31 Oct 4.8 03:28:11 22° N 03:31:23 41° NE 03:36:43 10° ESE visible
31 Oct 4.1 05:10:12 10° NW 05:15:30 42° WSW 05:20:48 10° S visible
31 Oct 4.6 18:23:01 10° SSE 18:26:35 28° SE 18:26:35 28° SE visible
31 Oct 5.5 20:06:13 10° SW 20:08:31 24° WSW 20:08:31 24° WSW visible
01 Nov 6.6 01:32:59 11° NE 01:32:59 11° NE 01:33:39 10° NE visible
01 Nov 4.9 03:14:54 31° N 03:16:44 40° NE 03:22:02 10° ESE visible
01 Nov 4.0 04:56:49 17° NW 05:00:53 44° WSW 05:06:13 10° S visible
01 Nov 4.4 18:08:28 10° SSE 18:13:17 30° ESE 18:13:34 30° E visible
01 Nov 4.7 19:51:33 10° SW 19:55:30 41° WSW 19:55:30 41° WSW visible
